Wind_Speed
62 61 59 60 61 63 64 61 66 60 57 53 49 46 42 39 36 32 26 22 17 13 9 6 3 5 6 9 11 9 11 12 13 13 14 13 11 11 9 14 16 18 17 15
53 53 53 57 60 61 61 59 63 66 65 63 61 59 55 50 46 41 35 32 29 24 21 15 13 12 12 10 11 12 14 13 14 14 10 9 7 5 6 8 7 4 4 3
48 48 51 53 56 59 60 60 66 66 69 71 71 72 67 64 60 55 50 45 40 36 31 27 25 23 21 20 21 20 21 20 17 14 12 12 5 11 11 9 9 11 10 15
50 48 47 49 52 55 59 60 65 68 72 75 77 79 79 74 71 65 60 57 54 50 42 35 32 32 30 30 28 25 23 22 21 17 16 18 18 20 20 18 16 23 21 31
46 45 46 48 51 56 58 62 64 65 70 74 77 77 78 80 78 74 73 70 64 59 56 53 54 44 39 37 32 27 25 23 22 21 23 25 26 28 29 27 22 31 38 40
49 44 45 46 46 51 54 57 59 61 64 67 72 76 77 79 80 83 82 80 76 73 67 64 61 53 49 48 46 47 42 34 32 30 29 28 26 31 34 29 37 46 49 44
45 45 41 42 42 44 46 50 52 54 57 61 64 68 71 75 77 77 77 78 78 73 71 66 61 62 61 60 58 56 53 43 36 35 32 29 30 28 35 35 35 36 46 53
50 40 42 37 38 40 41 43 46 48 50 53 56 59 61 65 67 70 71 74 73 73 72 70 69 68 67 65 61 61 61 51 42 38 36 34 29 27 27 30 30 38 42 48
64 44 36 37 35 35 37 38 40 41 43 46 47 51 52 55 58 60 62 65 65 67 68 69 70 69 68 67 66 68 61 55 57 51 48 44 40 30 27 25 25 31 38 41
62 60 41 34 33 33 32 33 36 37 38 38 39 40 43 45 47 50 52 54 57 57 59 62 64 65 67 64 67 64 62 61 64 58 50 45 43 36 34 28 22 25 19 20
74 66 60 42 31 30 29 30 31 32 32 32 34 35 35 38 40 42 44 45 48 50 52 54 56 55 57 57 57 58 56 55 57 56 53 51 50 46 34 29 27 24 19 15
72 73 65 51 38 30 28 26 26 30 30 30 29 28 30 31 32 34 35 37 40 43 44 45 46 46 48 48 49 48 48 49 50 51 53 53 51 47 46 40 22 14 14 12
68 69 65 53 57 43 32 29 27 23 26 28 27 27 26 26 28 29 29 30 31 33 36 37 37 39 38 39 39 40 39 40 42 43 44 45 45 45 44 39 40 38 32 27
65 66 69 64 59 51 44 31 28 28 24 23 24 25 26 25 23 23 24 25 25 26 28 29 28 30 31 31 31 32 34 35 34 34 34 33 34 34 35 35 36 32 30 29
55 60 64 62 70 60 52 41 34 27 27 25 23 22 22 23 23 21 20 20 22 21 21 22 23 22 21 22 22 23 23 23 24 25 27 28 27 25 23 22 22 24 23 21
52 58 60 55 62 60 55 49 44 32 26 26 27 25 24 22 21 21 20 19 18 19 19 19 18 18 17 15 13 14 15 15 16 16 17 18 18 19 17 16 16 13 13 13
59 55 56 59 58 60 59 55 45 38 32 26 26 29 28 26 25 23 22 21 20 19 19 19 19 18 16 15 14 12 10 10 12 12 14 14 14 13 12 9 8 8 10 9
54 54 59 58 57 59 58 54 48 49 29 36 31 30 32 33 32 28 26 24 24 23 21 20 21 20 21 19 17 16 16 14 11 10 11 12 13 12 14 12 9 10 11 12
56 58 61 63 59 57 59 58 50 47 43 38 34 30 32 36 36 36 33 29 26 27 24 25 26 26 23 24 23 22 21 20 18 16 14 14 12 14 13 15 14 16 16 16
61 66 66 66 64 59 62 60 54 48 48 49 43 27 22 20 26 36 39 38 33 31 31 28 33 33 28 32 28 29 29 27 24 23 22 21 19 17 18 18 18 16 16 17
71 70 65 64 63 62 63 57 55 55 51 48 51 39 30 21 22 22 26 37 42 39 36 35 38 41 33 36 32 31 32 34 31 29 28 27 26 25 23 21 20 20 21 21
72 71 63 63 62 64 61 59 57 59 54 52 47 49 37 27 24 25 26 26 26 38 46 44 43 49 41 38 39 36 34 34 35 36 36 35 33 32 32 31 28 26 24 26
73 73 68 62 62 63 63 60 58 59 57 55 51 49 42 32 27 27 25 30 33 33 34 48 54 55 54 46 41 43 41 39 38 38 38 39 38 37 36 38 38 36 34 33
73 74 67 65 65 62 57 61 57 59 58 55 52 49 47 44 39 34 30 28 33 37 41 42 51 59 62 59 53 49 49 47 44 43 43 44 43 41 40 40 41 42 44 45
72 70 63 58 62 63 63 67 64 62 56 54 52 54 50 47 50 49 37 33 29 33 36 37 46 56 63 66 63 60 55 54 53 51 50 49 49 47 47 46 46 48 47 47
68 63 59 67 66 69 71 68 65 61 58 57 51 51 53 51 53 57 54 29 30 34 33 38 41 41 48 66 69 66 65 63 60 59 59 58 57 56 54 53 54 54 52 53
62 61 61 60 64 67 68 61 58 61 64 62 58 55 56 56 58 63 60 38 36 35 34 35 38 40 40 42 56 70 71 72 73 72 68 66 68 66 65 64 60 58 58 59
Wind_Direction
39 44 50 55 59 63 62 63 65 62 59 57 55 51 48 49 53 52 54 60 66 73 75 82 131 174 183 194 205 207 207 210 204 201 211 217 229 232 235 246 254 256 264 270
40 47 52 58 63 64 65 64 64 62 59 56 57 56 55 56 59 61 64 65 64 66 72 85 94 117 134 154 140 137 138 131 146 156 164 160 157 160 197 230 224 236 248 248
42 51 58 60 63 64 63 63 63 60 58 57 57 58 58 59 60 61 64 65 65 66 70 79 89 94 101 102 104 108 117 120 127 126 124 125 149 132 126 128 136 119 110 108
39 47 54 59 63 65 64 64 64 62 60 59 57 56 58 58 60 61 65 67 67 66 68 72 79 84 86 88 90 95 99 105 113 120 119 116 124 124 119 121 118 112 110 107
36 42 46 53 60 62 64 65 65 67 65 62 61 59 56 59 60 62 64 67 68 70 71 74 73 72 76 77 82 82 91 103 105 113 109 109 107 106 104 113 112 112 109 107
18 32 42 44 48 53 56 57 57 60 63 64 63 63 62 60 59 61 59 60 62 62 61 62 66 68 71 74 75 75 77 78 82 86 87 92 98 104 109 114 112 116 113 113
18 17 27 38 43 44 49 53 51 52 53 58 60 62 64 63 62 61 61 61 60 61 63 67 70 74 74 73 72 71 67 66 69 74 79 90 102 97 107 108 117 119 122 122
15 15 15 23 33 36 40 45 47 48 49 50 53 57 58 61 65 64 63 63 64 63 63 63 66 69 70 69 70 68 65 63 67 73 72 76 85 90 103 112 115 123 129 134
17 10 10 14 15 26 30 33 39 42 41 43 46 50 53 55 56 57 61 64 63 63 65 66 65 67 67 65 63 61 61 64 68 70 66 64 63 75 79 93 96 125 137 149
11 15 6 4 8 9 16 22 27 32 34 36 39 44 46 49 52 54 53 55 58 59 60 60 62 63 65 64 62 63 64 65 65 66 64 64 63 69 65 73 79 102 125 151
4 15 13 3 355 359 3 4 9 20 25 27 30 34 40 40 43 47 49 51 52 54 52 53 53 55 57 59 62 64 64 65 67 67 65 64 61 66 66 65 65 62 73 93
1 3 9 9 355 343 347 353 358 358 7 13 17 23 28 30 33 37 41 43 44 46 49 50 51 47 49 50 52 56 58 59 60 60 67 67 66 64 63 65 67 61 56 56
349 355 5 11 12 4 340 337 343 351 350 354 359 2 9 19 22 26 30 34 37 38 39 42 43 46 47 46 46 45 46 51 54 56 59 56 54 60 65 71 71 71 73 72
341 346 352 2 9 12 9 343 328 330 338 340 342 346 350 355 5 13 14 16 22 26 29 31 36 37 38 40 42 41 39 34 36 43 47 56 60 56 55 58 65 72 75 75
337 342 345 345 351 358 6 4 350 323 318 322 326 328 331 337 341 347 356 2 3 9 15 19 22 27 33 35 35 36 39 39 37 31 30 31 39 50 52 57 61 64 65 67
331 334 338 342 345 347 351 358 1 350 314 306 308 312 315 317 321 327 332 336 346 352 357 359 3 11 13 19 29 29 25 29 31 29 28 25 30 28 29 30 25 42 55 56
318 322 332 333 336 342 347 351 356 357 344 309 297 298 300 299 303 309 312 317 321 325 333 337 339 341 346 349 350 355 5 9 9 11 8 5 0 1 8 358 353 344 334 336
316 322 323 328 330 334 339 338 353 354 359 355 332 299 290 292 294 293 293 298 303 307 311 314 315 318 321 323 323 326 330 334 340 346 350 351 346 342 336 330 308 297 281 284
307 310 314 318 320 323 330 333 336 346 340 349 345 345 323 297 283 286 287 285 285 289 295 298 296 297 303 305 308 310 311 315 318 323 322 328 321 321 321 309 303 295 285 280
297 302 306 310 312 313 319 328 328 337 332 332 343 340 324 327 316 291 283 282 282 280 281 282 285 285 289 290 298 301 302 303 305 308 311 313 313 309 308 301 286 294 286 286
289 294 297 302 306 307 313 319 319 325 329 327 334 333 334 313 308 305 304 290 283 276 274 274 276 277 279 283 286 289 294 298 299 299 301 306 308 309 304 293 284 288 286 288
285 291 291 295 298 300 305 310 311 317 320 322 324 329 324 318 308 293 282 285 289 283 273 270 270 274 273 275 282 283 283 286 293 297 299 301 304 307 308 305 299 285 288 294
284 279 284 286 289 295 300 300 305 310 312 314 316 322 324 322 319 308 288 281 275 273 266 265 267 269 271 268 269 274 276 278 280 284 289 292 297 300 303 305 305 301 299 293
277 277 277 280 287 290 289 294 296 304 304 306 310 319 318 317 317 310 309 297 278 271 265 257 256 261 265 266 265 265 269 272 275 278 281 283 287 291 292 296 297 297 297 299
270 271 273 273 277 279 281 286 290 295 298 300 305 311 311 311 317 309 305 307 300 283 279 278 279 266 258 262 265 267 265 268 270 272 274 276 279 281 284 286 290 291 295 297
265 267 266 266 269 268 272 279 285 289 291 295 299 302 300 304 305 305 304 301 305 301 298 290 282 280 275 265 263 264 266 268 268 271 273 274 274 274 276 278 280 283 288 291
264 268 270 261 257 265 278 277 277 281 288 292 293 297 294 294 296 294 301 301 299 296 295 294 296 295 297 279 266 268 268 270 271 272 271 272 274 274 274 274 275 279 282 285
Height
10493 10480 10469 10458 10450 10442 10436 10434 10425 10424 10418 10411 10405 10396 10388 10382 10377 10373 10371 10370 10371 10371 10373 10375 10378 10381 10386 10388 10390 10397 10401 10405 10410 10413 10416 10420 10422 10425 10430 10429 10430 10430 10430 10431
10518 10505 10494 10483 10474 10465 10460 10455 10447 10439 10432 10425 10418 10409 10402 10394 10388 10384 10381 10378 10376 10376 10377 10379 10381 10384 10387 10388 10394 10398 10402 10406 10409 10411 10416 10421 10423 10427 10427 10428 10427 10426 10427 10430
10541 10528 10517 10506 10497 10488 10482 10473 10463 10456 10450 10442 10433 10424 10416 10408 10401 10395 10392 10388 10387 10386 10386 10386 10388 10390 10391 10395 10397 10400 10403 10407 10409 10413 10416 10420 10424 10427 10426 10427 10425 10426 10430 10432
10561 10550 10539 10529 10519 10510 10502 10494 10483 10475 10467 10459 10450 10439 10431 10424 10418 10410 10405 10400 10399 10398 10397 10396 10396 10398 10400 10402 10405 10407 10409 10411 10414 10416 10419 10422 10426 10429 10429 10428 10428 10429 10431 10434
10578 10568 10558 10550 10538 10528 10521 10512 10505 10495 10488 10480 10471 10462 10454 10447 10439 10432 10426 10420 10416 10415 10413 10410 10408 10411 10412 10413 10415 10418 10420 10421 10423 10424 10425 10427 10431 10433 10433 10434 10433 10435 10436 10441
10590 10580 10571 10564 10556 10546 10537 10532 10524 10517 10508 10499 10493 10484 10476 10468 10459 10453 10446 10440 10435 10432 10428 10423 10421 10425 10427 10428 10429 10430 10431 10431 10431 10431 10432 10435 10437 10438 10440 10440 10440 10443 10443 10448
10596 10592 10584 10575 10569 10562 10554 10545 10540 10533 10526 10518 10512 10505 10499 10491 10483 10477 10471 10465 10461 10457 10451 10448 10446 10444 10443 10444 10444 10444 10443 10444 10443 10441 10441 10444 10445 10445 10446 10448 10450 10451 10452 10454
10602 10597 10594 10588 10579 10573 10567 10558 10552 10548 10542 10535 10528 10520 10516 10510 10506 10502 10495 10489 10485 10480 10476 10473 10467 10464 10461 10461 10460 10457 10454 10454 10452 10452 10451 10451 10452 10454 10455 10456 10458 10460 10462 10463
10611 10602 10597 10594 10589 10583 10577 10570 10564 10559 10555 10549 10544 10537 10531 10525 10522 10517 10513 10509 10504 10500 10497 10493 10487 10482 10478 10476 10471 10468 10469 10469 10465 10465 10463 10462 10461 10462 10463 10464 10467 10468 10471 10472
10619 10610 10602 10597 10593 10589 10585 10579 10573 10568 10562 10559 10556 10552 10546 10541 10535 10530 10527 10523 10518 10515 10512 10507 10504 10502 10498 10495 10489 10487 10485 10483 10479 10478 10477 10475 10474 10473 10473 10473 10475 10480 10478 10481
10627 10619 10610 10603 10597 10593 10588 10585 10580 10574 10571 10567 10563 10560 10557 10554 10550 10544 10539 10537 10532 10528 10524 10520 10516 10515 10511 10510 10510 10507 10505 10503 10499 10497 10493 10489 10487 10484 10484 10484 10484 10487 10490 10491
10628 10623 10617 10607 10601 10595 10591 10586 10583 10581 10577 10574 10571 10567 10563 10560 10558 10555 10551 10546 10543 10540 10536 10533 10530 10527 10523 10522 10520 10519 10519 10516 10513 10509 10508 10505 10502 10499 10496 10495 10494 10495 10496 10499
10628 10625 10620 10614 10608 10600 10595 10590 10586 10582 10580 10578 10575 10573 10569 10564 10561 10559 10558 10556 10553 10549 10545 10542 10540 10538 10536 10533 10530 10528 10527 10527 10524 10521 10516 10514 10513 10512 10511 10509 10507 10505 10505 10506
10629 10624 10622 10618 10612 10604 10598 10592 10588 10584 10579 10577 10577 10575 10573 10571 10567 10563 10560 10560 10558 10556 10554 10552 10549 10545 10543 10541 10538 10535 10532 10529 10527 10529 10528 10527 10524 10522 10519 10520 10518 10516 10514 10513
10628 10625 10620 10616 10612 10607 10600 10593 10589 10584 10582 10578 10575 10573 10572 10571 10569 10567 10564 10562 10560 10558 10557 10557 10555 10554 10551 10548 10546 10543 10541 10541 10539 10534 10531 10530 10530 10530 10529 10529 10528 10525 10522 10520
10624 10621 10619 10615 10611 10605 10600 10596 10588 10582 10579 10577 10575 10572 10569 10568 10567 10565 10564 10563 10561 10559 10557 10556 10555 10554 10553 10552 10550 10549 10545 10543 10542 10541 10538 10538 10537 10535 10533 10531 10529 10528 10527 10526
10619 10618 10613 10611 10609 10603 10599 10595 10590 10582 10577 10573 10571 10569 10567 10565 10563 10562 10561 10560 10560 10559 10557 10555 10553 10552 10551 10550 10549 10548 10547 10545 10542 10541 10539 10538 10536 10535 10535 10533 10531 10530 10527 10525
10609 10606 10605 10605 10603 10599 10595 10592 10586 10582 10577 10574 10569 10565 10563 10562 10560 10559 10557 10557 10555 10555 10554 10552 10550 10548 10546 10546 10545 10544 10543 10542 10540 10538 10536 10535 10534 10533 10531 10530 10529 10527 10526 10523
10601 10600 10597 10599 10597 10593 10591 10588 10583 10578 10575 10570 10567 10562 10558 10555 10554 10553 10553 10552 10551 10549 10549 10547 10543 10542 10540 10539 10539 10538 10537 10536 10534 10533 10531 10530 10529 10527 10527 10525 10524 10523 10521 10520
10592 10591 10590 10589 10587 10586 10583 10580 10577 10573 10570 10566 10563 10558 10553 10550 10547 10547 10547 10545 10545 10543 10542 10540 10535 10532 10535 10531 10533 10532 10531 10529 10528 10526 10525 10523 10521 10519 10518 10517 10516 10514 10512 10511
10581 10583 10582 10578 10577 10574 10573 10571 10567 10564 10562 10559 10556 10552 10548 10544 10541 10539 10537 10536 10536 10537 10533 10531 10525 10521 10527 10523 10524 10523 10523 10521 10521 10519 10518 10516 10515 10512 10510 10507 10505 10504 10502 10500
10568 10568 10569 10565 10565 10564 10562 10559 10557 10555 10551 10550 10547 10544 10540 10536 10533 10530 10527 10524 10524 10526 10524 10520 10517 10509 10514 10515 10514 10514 10513 10513 10512 10511 10510 10508 10506 10503 10501 10499 10496 10493 10490 10488
10557 10554 10556 10554 10552 10550 10548 10547 10546 10544 10542 10539 10537 10534 10530 10526 10524 10521 10518 10514 10512 10509 10510 10510 10504 10498 10497 10502 10502 10501 10500 10500 10500 10501 10500 10498 10497 10494 10492 10488 10485 10482 10479 10476
10538 10539 10542 10538 10537 10535 10533 10533 10534 10534 10531 10528 10525 10522 10519 10516 10513 10508 10507 10505 10500 10499 10494 10490 10488 10485 10481 10483 10486 10488 10487 10487 10487 10487 10487 10486 10485 10484 10482 10479 10476 10472 10469 10466
10519 10524 10528 10526 10518 10518 10518 10519 10520 10522 10519 10516 10513 10511 10507 10504 10500 10494 10496 10493 10490 10487 10483 10479 10478 10474 10469 10465 10469 10473 10474 10473 10473 10473 10472 10471 10470 10470 10468 10467 10465 10462 10459 10455
10498 10507 10515 10504 10503 10502 10501 10505 10506 10506 10505 10503 10503 10500 10496 10493 10489 10479 10479 10484 10480 10475 10472 10467 10464 10460 10458 10457 10453 10455 10458 10459 10458 10457 10456 10455 10454 10453 10452 10451 10447 10446 10445 10442
10480 10487 10488 10483 10483 10483 10483 10487 10491 10489 10488 10488 10488 10486 10483 10480 10474 10459 10463 10470 10469 10463 10457 10454 10451 10447 10445 10443 10443 10441 10440 10440 10439 10439 10438 10437 10436 10434 10434 10431 10429 10429 10428 10425